ORBVIEW 2 (SEASTAR) 1 24883U 97037A 12039.36906406 .00000089 00000-0 48482-4 0 6488 2 24883 98.3989 161.7666 0002784 124.7716 235.3733 14.32398386771812 METEOSAT-7 1 24932U 97049B 12036.96192510 .00000062 00000-0 00000+0 0 9586 2 24932 7.4190 57.9331 0000663 255.6932 225.7345 1.00267236 52853 NOAA 15 1 25338U 98030A 12039.23369788 -.00000010 00000-0 14310-4 0 1337 2 25338 98.6788 27.4432 0011377 123.6993 236.5273 14.25027141714347 NOAA 16 1 26536U 00055A 12039.21625436 .00000215 00000-0 14077-3 0 6173 2 26536 99.1135 79.2290 0011310 90.3583 269.8871 14.12704278586685 GOES 12 1 26871U 01031A 12039.21093595 -.00000287 00000-0 10000-3 0 4467 2 26871 1.9662 74.4367 0002016 288.4899 150.6546 1.00282733 38697 FENGYUN 1D 1 27431U 02024B 12039.76483940 -.00000133 00000-0 -51523-4 0 8663 2 27431 98.7461 10.0156 0014982 193.8381 166.2384 14.09346912500952 NOAA 17 1 27453U 02032A 12039.49208923 .00000185 00000-0 97776-4 0 5901 2 27453 98.3527 72.9970 0011882 172.4194 187.7192 14.24391594500292 METEOSAT-8 (MSG-1) 1 27509U 02040B 12038.87897059 .00000063 00000-0 00000+0 0 8498 2 27509 1.0885 57.0442 0000273 313.7940 92.5750 1.00280430 34685 KALPANA-1 (METSAT 1) 1 27525U 02043A 12038.83653381 -.00000080 00000-0 10000-3 0 4045 2 27525 2.5687 71.7518 0006934 209.6042 231.0932 1.00272754 34482 INSAT-3A 1 27714U 03013A 12039.67597904 -.00000260 00000-0 10000-3 0 9612 2 27714 0.0735 257.7929 0006871 48.5424 168.6475 1.00269527 32394 FENGYUN 2C 1 28451U 04042A 12039.59368545 -.00000361 00000-0 10000-3 0 3359 2 28451 3.6835 67.6275 0001517 314.0745 93.7694 1.00273348 26743 HIMAWARI-6 (MTSAT-1R) 1 28622U 05006A 12038.58384596 -.00000283 00000-0 10000-3 0 6156 2 28622 0.0234 266.8940 0000550 68.1437 152.2633 1.00271112 25436 NOAA 18 1 28654U 05018A 12039.49849848 .00000431 00000-0 26176-3 0 677 2 28654 99.0297 356.6222 0014585 157.0599 203.1219 14.11603284346267 METEOSAT-9 (MSG-2) 1 28912U 05049B 12039.92683800 -.00000002 00000-0 00000+0 0 242 2 28912 0.3667 0.5418 0000170 64.4180 47.6002 1.00281720 22548 MTSAT-2 1 28937U 06004A 12038.36638417 -.00000244 00000-0 10000-3 0 1044 2 28937 0.0125 143.3769 0001956 197.2644 73.2198 1.00272488 21911 FORMOSAT-3 FM6 1 29047U 06011A 12039.08684741 .00000049 00000-0 36573-4 0 7228 2 29047 71.9771 215.0160 0052941 281.7725 77.7484 14.27386036305537 FORMOSAT-3 FM1 1 29048U 06011B 12039.52169172 .00000392 00000-0 17471-3 0 8052 2 29048 71.9709 128.4520 0046615 234.6672 125.0100 14.27405726308077 FORMOSAT-3 FM5 1 29049U 06011C 12039.25046128 .00000363 00000-0 16364-3 0 7482 2 29049 72.0215 283.4732 0036946 286.8440 72.8647 14.27417350303815 FORMOSAT-3 FM3 1 29050U 06011D 12038.90264152 .00001124 00000-0 26646-3 0 645 2 29050 72.0169 13.6314 0051714 102.5739 258.1171 14.55106549311646 FORMOSAT-3 FM4 1 29051U 06011E 12039.35509795 .00000375 00000-0 16522-3 0 8031 2 29051 72.0041 190.6264 0069647 160.1060 200.2823 14.27414054306410 FORMOSAT-3 FM2 1 29052U 06011F 12039.04038161 .00000362 00000-0 16273-3 0 8244 2 29052 72.0345 256.4026 0042636 255.8923 103.7470 14.27453311304674 GOES 13 1 29155U 06018A 12039.37064463 -.00000253 00000-0 10000-3 0 9428 2 29155 0.4183 80.7629 0001905 317.1510 158.8124 1.00269057 20949 METOP-A 1 29499U 06044A 12039.75304731 .00000091 00000-0 61793-4 0 6506 2 29499 98.7193 100.7167 0002072 69.9582 290.1808 14.21477300275331 FENGYUN 2D 1 29640U 06053A 12039.71289940 -.00000202 00000-0 10000-3 0 3487 2 29640 2.0674 76.8097 0004879 221.6202 183.1094 1.00268639 18990 FENGYUN 3A 1 32958U 08026A 12039.76589102 .00000016 00000-0 28093-4 0 5951 2 32958 98.6607 111.2198 0000459 133.7070 226.4138 14.19709348191921 NOAA 19 1 33591U 09005A 12039.47733520 .00000048 00000-0 50657-4 0 2555 2 33591 98.8529 340.9554 0014632 30.8020 329.4006 14.11289266154715 GOES 14 1 35491U 09033A 12039.18146576 -.00000089 00000-0 00000+0 0 3227 2 35491 0.0894 247.6662 0003236 191.8656 18.0029 1.00271848 9615 METEOR-M 1 1 35865U 09049A 12039.73841396 -.00000018 00000-0 11663-4 0 1336 2 35865 98.6734 96.3866 0003296 71.2458 288.9077 14.21855061124204 GOES 15 1 36411U 10008A 12039.18183238 .00000086 00000-0 00000+0 0 9312 2 36411 0.0285 269.8755 0000666 324.7201 193.4948 1.00263378 7118 COMS 1 1 36744U 10032A 12038.58351056 -.00000346 00000-0 10000-3 0 3067 2 36744 0.0190 73.7578 0000857 277.8993 123.7031 1.00271083 6070 FENGYUN 3B 1 37214U 10059A 12039.72638941 .00000052 00000-0 45532-4 0 3867 2 37214 98.7479 343.0941 0001969 63.1951 296.9427 14.19744550 65412 ELEKTRO-L 1 (GOMS 2) 1 37344U 11001A 12039.59479947 -.00000100 00000-0 10000-3 0 2701 2 37344 0.0504 111.0909 0001245 334.9382 342.2226 1.00271667 3911 SUOMI NPP 1 37849U 11061A 12039.76010653 -.00000114 00000-0 -33531-4 0 979 2 37849 98.7054 339.3585 0001506 59.5914 300.5411 14.19542103 14679 FENGYUN 2F 1 38049U 12002A 12039.60809493 -.00000360 00000-0 10000-3 0 257 2 38049 2.3527 277.8000 0006256 265.9370 285.5480 1.00273389 320